[[{"header":{"parameterUnit":"m.s-1","parameterCategory":1,"la1":30.2991,"la2":30.254,"lo1":-89.0895,"lo2":-89.0444,"dy":0.0017,"dx":0.0017,"nx":28,"ny":28,"refTime":"2024-08-16T03:00:00:Z","depth":0,"parameterNumber":2,"parameterNumberName":"U-component_of_WINDS"},"data":[0,0,0,0,0,0,0,0,0,0,0,0,0,0,0,0,0,0,0,0,0,0,0,0,0,0,0,0,0,0,0,0,0,0,0,0,0,0,0,0,0,0,0,0,0,0,0,0,0,0,0,0,0,0,0,0,0,0,0.7547,0.7546,0,0.7483,0.7482,0.7482,0.7445,0.7445,0.7445,0.7445,0.7373,0.7371,0.7369,0,0,0,0,0,0,0,0,0,0,0,0,0,0.763,0.7629,0.7547,0.7546,0.7545,0.7483,0.7482,0.7481,0.7445,0.7445,0.7445,0.7445,0.7373,0.7371,0.7369,0,0,0,0,0,0,0,0,0,0,0,0,0,0.7583,0.7628,0.7547,0.752,0.7517,0.7483,0.7482,0.7481,0.7445,0.7445,0.7445,0.7445,0.7374,0.7371,0.7369,0.7355,0,0,0.736,0.7359,0,0,0,0,0,0,0,0,0.7585,0.758,0.7524,0.7522,0.7518,0.7472,0.7485,0.7439,0.7445,0.7472,0.7445,0.7445,0.7405,0.74,0.7388,0.7352,0.7349,0.736,0.7358,0.7357,0.7357,0,0,0,0,0,0,0,0.7589,0.7582,0.7521,0.7524,0.752,0.7508,0.7502,0.7476,0.744,0.747,0.7467,0.746,0.7404,0.7391,0.7386,0.7348,0.736,0.7358,0.7356,0.7355,0.7296,0.7296,0,0,0,0,0,0,0.7597,0.7585,0.7523,0.7519,0.7552,0.7507,0.7499,0.7487,0.744,0.7433,0.7461,0.7459,0.7396,0.739,0.7384,0.7364,0.7357,0.7355,0.7353,0.7295,0.7296,0.7296,0,0,0,0,0,0,0.7599,0.7592,0.7526,0.7551,0.7542,0.7506,0.7492,0.7486,0.7473,0.7434,0.7426,0.7455,0.7395,0.7387,0.7363,0.7361,0.7354,0.7351,0.7295,0.7295,0.7296,0.7326,0,0,0,0,0,0,0.7602,0.7593,0.7589,0.7552,0.7541,0.7508,0.7492,0.7485,0.7469,0.7467,0.7426,0.7419,0.7395,0.7367,0.736,0.7357,0.7349,0.7295,0.7295,0.7296,0.7325,0.7327,0.7329,0,0,0,0,0,0.7605,0.7599,0.7589,0.7582,0.7536,0.7508,0.7502,0.7476,0.747,0.7464,0.7439,0.7421,0.7363,0.7365,0.7357,0.7353,0.7295,0.7295,0.7296,0.7324,0.7327,0.7329,0,0,0,0,0,0,0.7635,0.7594,0.7582,0.7565,0.7541,0.7502,0.7495,0.7479,0.7455,0.7453,0.7419,0.741,0.7388,0.7368,0.7371,0.7337,0.7327,0.7325,0.7351,0.7353,0.7355,0.736,0.7347,0,0,0,0,0,0.764,0.7623,0.7587,0.7575,0.7564,0.7532,0.7519,0.7501,0.7473,0.7462,0.7435,0.7407,0.7382,0.7367,0.7342,0.7322,0.7311,0.7315,0.7317,0.7319,0.7318,0.7304,0.7305,0.7296,0.7296,0.7296,0,0,0.7649,0.7625,0.7616,0.758,0.756,0.7541,0.7523,0.7504,0.7489,0.7458,0.7434,0.7413,0.7379,0.7357,0.7346,0.7339,0.7318,0.7319,0.7321,0.7319,0.7305,0.7305,0.7306,0.7296,0.7296,0.7296,0,0,0.7657,0.7637,0.7625,0.7605,0.7574,0.7553,0.755,0.7514,0.75,0.7475,0.7451,0.7432,0.7391,0.7368,0.735,0.7349,0.7331,0.7342,0.7352,0.7339,0.734,0.734,0.7339,0.7339,0.7341,0.7341,0.7341,0,0.7672,0.7645,0.762,0.7603,0.7587,0.756,0.7546,0.7527,0.7489,0.7478,0.7472,0.7419,0.7395,0.7366,0.7366,0.7353,0.7347,0.7346,0.7342,0.7342,0.7342,0.7341,0.734,0.7342,0.7342,0.7342,0.7342,0,0.7664,0.7646,0.7639,0.7606,0.7589,0.7574,0.7544,0.753,0.7513,0.7491,0.7466,0.7436,0.7404,0.7396,0.7378,0.7364,0.7361,0.7349,0.7338,0.7345,0.7343,0.7342,0.7344,0.7344,0.7343,0.7343,0,0,0.7689,0.7642,0.764,0.7624,0.7589,0.7573,0.7555,0.7526,0.7514,0.7489,0.7472,0.7437,0.7426,0.7407,0.7386,0.7375,0.7375,0.7364,0.7363,0.7367,0.7356,0.7365,0.7365,0.7363,0.7363,0.7363,0.7358,0,0.7691,0.7661,0.7637,0.7614,0.7596,0.7571,0.7555,0.753,0.7509,0.7489,0.7465,0.7441,0.7428,0.7416,0.7405,0.7378,0.7372,0.7378,0.7345,0.7344,0.7354,0.7363,0.7373,0.737,0.7357,0.7357,0.7357,0,0.7689,0.7667,0.7644,0.761,0.7601,0.7588,0.7559,0.7541,0.7511,0.7496,0.7475,0.7454,0.7432,0.7424,0.7391,0.7395,0.738,0.7365,0.7364,0.7359,0.7351,0.7358,0.7369,0.7369,0.7356,0.7356,0.7356,0,0.7709,0.7673,0.7654,0.7641,0.7601,0.7592,0.7575,0.7545,0.7529,0.7503,0.7492,0.7463,0.7447,0.7424,0.7395,0.7392,0.7365,0.7354,0.735,0.7351,0.7345,0.7346,0.7353,0.7337,0.7337,0.7337,0.7337,0,0.7713,0.7699,0.7662,0.765,0.7634,0.7606,0.7589,0.7569,0.7543,0.7525,0.75,0.7483,0.7446,0.7424,0.7401,0.7377,0.7369,0.7355,0.7349,0.7357,0.7359,0.7346,0.7346,0.7336,0.7337,0.7337,0.7337,0,0.7732,0.7707,0.7684,0.7649,0.764,0.7629,0.7597,0.7583,0.7562,0.7539,0.7532,0.7497,0.747,0.7439,0.74,0.7384,0.7362,0.7353,0.7373,0.7369,0.7367,0.7367,0.7365,0.7363,0.7349,0.7349,0.735,0,0.7736,0.7725,0.7689,0.7677,0.7661,0.7641,0.7625,0.7596,0.758,0.7546,0.7536,0.7507,0.7483,0.744,0.7409,0.7379,0.7369,0.7371,0.7364,0.7373,0.7368,0.7369,0.7367,0.7372,0.7373,0.7373,0.7373,0,0.7746,0.7734,0.7714,0.7689,0.7671,0.765,0.7627,0.7617,0.7583,0.7566,0.7539,0.7521,0.7483,0.7454,0.742,0.7399,0.7379,0.7376,0.7373,0.7381,0.7392,0.7385,0.7377,0.7375,0.7375,0.7375,0.7375,0.7375,0.7757,0.7746,0.7719,0.7697,0.7677,0.7656,0.7642,0.7619,0.7597,0.7566,0.7549,0.7522,0.7491,0.7445,0.7424,0.7401,0.7394,0.7391,0.739,0.7389,0.7391,0.7397,0.7394,0.7394,0.7394,0.7394,0.7394,0,0.7765,0.7747,0.7727,0.7697,0.7679,0.7665,0.7638,0.7623,0.7601,0.7575,0.7552,0.7521,0.7492,0.746,0.7429,0.7416,0.7407,0.7409,0.7409,0.7404,0.7399,0.7404,0.7417,0.7417,0.7417,0.7417,0.7417,0.7417,0.7767,0.7748,0.7733,0.7703,0.7683,0.7659,0.7645,0.7625,0.7604,0.7571,0.7548,0.7528,0.7499,0.7466,0.7438,0.7429,0.7418,0.7423,0.7411,0.7407,0.7405,0.7403,0.7408,0.7421,0.7421,0.7419,0.7419,0.7419]},{"header":{"parameterUnit":"m.s-1","parameterCategory":1,"la1":30.2991,"la2":30.254,"lo1":-89.0895,"lo2":-89.0444,"dy":0.0017,"dx":0.0017,"nx":28,"ny":28,"refTime":"2024-08-16T03:00:00:Z","depth":0,"parameterNumber":3,"parameterNumberName":"V-component_of_WINDS"},"data":[0,0,0,0,0,0,0,0,0,0,0,0,0,0,0,0,0,0,0,0,0,0,0,0,0,0,0,0,0,0,0,0,0,0,0,0,0,0,0,0,0,0,0,0,0,0,0,0,0,0,0,0,0,0,0,0,0,0,-0.642,-0.6417,0,-0.6147,-0.6144,-0.6141,-0.6009,-0.6009,-0.6009,-0.6009,-0.5723,-0.5716,-0.5708,0,0,0,0,0,0,0,0,0,0,0,0,0,-0.6819,-0.6813,-0.642,-0.6417,-0.6413,-0.6148,-0.6144,-0.614,-0.6009,-0.6009,-0.6009,-0.6009,-0.5726,-0.5716,-0.5707,0,0,0,0,0,0,0,0,0,0,0,0,0,-0.6606,-0.6811,-0.6421,-0.6316,-0.6304,-0.6149,-0.6144,-0.6139,-0.6009,-0.6009,-0.6009,-0.6009,-0.5729,-0.5717,-0.5706,-0.5633,0,0,-0.5671,-0.5666,0,0,0,0,0,0,0,0,-0.6619,-0.6592,-0.6335,-0.6323,-0.6309,-0.6112,-0.618,-0.5969,-0.6009,-0.612,-0.6009,-0.6009,-0.5852,-0.583,-0.5779,-0.5619,-0.5607,-0.567,-0.5663,-0.5658,-0.5655,0,0,0,0,0,0,0,-0.6633,-0.6603,-0.6312,-0.6331,-0.6315,-0.628,-0.625,-0.6139,-0.5989,-0.6111,-0.6101,-0.607,-0.5845,-0.579,-0.5771,-0.5603,-0.567,-0.566,-0.5653,-0.5648,-0.5367,-0.5366,0,0,0,0,0,0,-0.6666,-0.6616,-0.6321,-0.6304,-0.6467,-0.6273,-0.6239,-0.6175,-0.599,-0.5962,-0.6071,-0.6065,-0.581,-0.5785,-0.576,-0.5661,-0.5658,-0.5647,-0.564,-0.5367,-0.5367,-0.5366,0,0,0,0,0,0,-0.6675,-0.6641,-0.6332,-0.6457,-0.6415,-0.6266,-0.6195,-0.617,-0.6115,-0.5959,-0.5931,-0.6043,-0.5809,-0.5777,-0.5665,-0.5649,-0.5642,-0.5631,-0.5368,-0.5367,-0.5366,-0.5462,0,0,0,0,0,0,-0.6687,-0.6645,-0.6618,-0.6457,-0.6409,-0.6244,-0.6194,-0.6164,-0.6096,-0.6087,-0.5926,-0.5899,-0.5806,-0.5683,-0.5654,-0.5633,-0.5622,-0.5369,-0.5368,-0.5367,-0.546,-0.5465,-0.5469,0,0,0,0,0,-0.6702,-0.6654,-0.6617,-0.6582,-0.6371,-0.6243,-0.6215,-0.6111,-0.6096,-0.6065,-0.5965,-0.5904,-0.5656,-0.5673,-0.5639,-0.5614,-0.5369,-0.5368,-0.5367,-0.5458,-0.5464,-0.5469,0,0,0,0,0,0,-0.6814,-0.6631,-0.6588,-0.6487,-0.6382,-0.6221,-0.6179,-0.6121,-0.6016,-0.6011,-0.5885,-0.585,-0.5749,-0.567,-0.5693,-0.5532,-0.5507,-0.5499,-0.5587,-0.5592,-0.5596,-0.5617,-0.5613,0,0,0,0,0,-0.6828,-0.6741,-0.6585,-0.6511,-0.6461,-0.633,-0.627,-0.6199,-0.6084,-0.6038,-0.593,-0.5818,-0.5714,-0.5649,-0.5545,-0.5448,-0.541,-0.5414,-0.5419,-0.5423,-0.5417,-0.5358,-0.5357,-0.5362,-0.5362,-0.5362,0,0,-0.6853,-0.6743,-0.6695,-0.6531,-0.6441,-0.6351,-0.6293,-0.6201,-0.6132,-0.6023,-0.5911,-0.5829,-0.5695,-0.5591,-0.5539,-0.5522,-0.5408,-0.5422,-0.5427,-0.5417,-0.5357,-0.5356,-0.5356,-0.5361,-0.5361,-0.5361,0,0,-0.6855,-0.6764,-0.6691,-0.6603,-0.6468,-0.6381,-0.6364,-0.6212,-0.6153,-0.604,-0.5955,-0.5871,-0.5696,-0.5604,-0.5535,-0.5502,-0.5441,-0.5472,-0.5495,-0.5439,-0.5438,-0.5437,-0.5424,-0.542,-0.5466,-0.5466,-0.5467,0,-0.6903,-0.6768,-0.6661,-0.6574,-0.6503,-0.6402,-0.6327,-0.6245,-0.6083,-0.6035,-0.6019,-0.5797,-0.57,-0.5572,-0.5564,-0.5511,-0.5486,-0.5488,-0.5447,-0.5445,-0.5443,-0.5428,-0.5424,-0.5471,-0.547,-0.547,-0.547,0,-0.6833,-0.674,-0.6697,-0.6545,-0.647,-0.6389,-0.6268,-0.6203,-0.614,-0.6054,-0.5939,-0.582,-0.569,-0.5654,-0.559,-0.5516,-0.5509,-0.5472,-0.5443,-0.5449,-0.5433,-0.5426,-0.5477,-0.5476,-0.5474,-0.5473,0,0,-0.6896,-0.6687,-0.6673,-0.6602,-0.6446,-0.6371,-0.6285,-0.616,-0.6106,-0.5997,-0.592,-0.5775,-0.5739,-0.566,-0.5585,-0.5536,-0.5515,-0.5504,-0.5499,-0.5509,-0.5424,-0.5452,-0.5448,-0.5475,-0.5474,-0.5472,-0.5435,0,-0.6874,-0.6717,-0.6619,-0.65,-0.6412,-0.6315,-0.6239,-0.6134,-0.6052,-0.5963,-0.5871,-0.5769,-0.5731,-0.5683,-0.563,-0.553,-0.5496,-0.5531,-0.5399,-0.5396,-0.5435,-0.5439,-0.5469,-0.5439,-0.5428,-0.5427,-0.5426,0,-0.6828,-0.6724,-0.6598,-0.6451,-0.641,-0.6344,-0.6221,-0.6138,-0.6016,-0.5959,-0.5872,-0.5796,-0.5698,-0.5679,-0.5542,-0.5568,-0.5508,-0.545,-0.5446,-0.5429,-0.5411,-0.542,-0.5427,-0.5422,-0.5416,-0.5416,-0.5417,0,-0.6885,-0.6713,-0.6614,-0.6557,-0.6384,-0.6339,-0.6265,-0.6143,-0.6074,-0.5966,-0.5919,-0.58,-0.5735,-0.5644,-0.5537,-0.5533,-0.5409,-0.5382,-0.5357,-0.536,-0.5334,-0.5337,-0.533,-0.5299,-0.5299,-0.5299,-0.5299,0,-0.6869,-0.6795,-0.6638,-0.6577,-0.649,-0.6377,-0.6294,-0.6211,-0.6103,-0.6023,-0.5932,-0.5858,-0.5722,-0.5631,-0.5547,-0.5444,-0.5416,-0.5365,-0.5343,-0.5372,-0.5379,-0.533,-0.5329,-0.5298,-0.5298,-0.5299,-0.5299,0,-0.6918,-0.6809,-0.6696,-0.6542,-0.6501,-0.6444,-0.631,-0.6246,-0.616,-0.6059,-0.6029,-0.5892,-0.578,-0.5665,-0.5513,-0.5456,-0.5356,-0.5326,-0.5398,-0.5385,-0.5366,-0.5369,-0.5326,-0.5314,-0.5295,-0.5295,-0.5295,0,-0.6915,-0.6856,-0.6696,-0.6637,-0.6565,-0.6471,-0.64,-0.6286,-0.6215,-0.6072,-0.6025,-0.5907,-0.5806,-0.5631,-0.5516,-0.5398,-0.5365,-0.5358,-0.5346,-0.5377,-0.5362,-0.5367,-0.5359,-0.5362,-0.5363,-0.5363,-0.5364,0,-0.692,-0.6869,-0.6772,-0.6657,-0.6576,-0.6478,-0.6377,-0.6333,-0.6199,-0.6124,-0.6009,-0.5932,-0.5777,-0.5659,-0.5529,-0.5449,-0.5383,-0.5369,-0.5356,-0.5384,-0.5428,-0.5402,-0.5408,-0.537,-0.5369,-0.5369,-0.5368,-0.5368,-0.694,-0.6883,-0.6762,-0.6656,-0.6569,-0.6477,-0.6409,-0.6315,-0.6218,-0.6085,-0.6023,-0.5907,-0.5785,-0.5603,-0.5524,-0.5431,-0.5412,-0.5395,-0.539,-0.5387,-0.5394,-0.5445,-0.5407,-0.5406,-0.5406,-0.5406,-0.5405,0,-0.6939,-0.6857,-0.6762,-0.6624,-0.6541,-0.6489,-0.6375,-0.6307,-0.6208,-0.6101,-0.6004,-0.5871,-0.5757,-0.5634,-0.5512,-0.5461,-0.5427,-0.5432,-0.5434,-0.5416,-0.5418,-0.544,-0.5461,-0.5461,-0.5461,-0.5461,-0.5461,-0.5461,-0.6929,-0.6829,-0.6764,-0.6619,-0.6536,-0.6424,-0.6363,-0.6276,-0.619,-0.6047,-0.5953,-0.5874,-0.5759,-0.5628,-0.5521,-0.5487,-0.5445,-0.5459,-0.5417,-0.542,-0.5416,-0.5412,-0.5432,-0.5451,-0.5451,-0.5422,-0.5422,-0.5422]}]]